Flag for Seychelles Weather past 2 weeks in Victoria, Seychelles

Now
86 °F

Scattered clouds.


Feels Like: 93 °F
Forecast: 76 / 81 °F
Wind: 17 mph from Southeast

Location: National Airport

Current Time: Sep 18, 2014 at 10:54:26 AM

Latest Report: Sep 18, 2014 at 10:00 AM


Visibility: N/A

Pressure: 29.95 "Hg

Humidity: 66%

Dew point: 73 °F

Location of VictoriaLocation

Historic Weather in Victoria — Graph

°F

Victoria temperature yesterday

Maximum temperature yesterday: 86 °F (at 12:00 PM)
Minimum temperature yesterday: 75 °F (at 11:00 PM)
Average temperature yesterday: 80 °F

Past Weeks' High & Low Weather Summary

 TemperatureHumidityPressure
High88 °F (Sep 8, 1:00 PM)100% (Sep 15, 4:00 AM)29.98 "Hg (Sep 15, 4:00 AM)
Low73 °F (Sep 15, 1:00 PM)59% (Sep 7, 11:00 AM)29.83 "Hg (Sep 3, 2:00 PM)
Average81 °F79%29.91 "Hg
* Reported Sep 3 9:00 AM — Sep 18 9:00 AM, Victoria, Weather by CustomWeather, © 2014

Note: Actual official high and low records may vary slightly from our data, if they occured in-between our weather recording intervals... More about our weather records

Advertising

Victoria weather history for previous 24 hours

 ConditionsComfort  
Time TempWeatherWind HumidityBarometerVisibility
9:00 AM
Sep 18
84 °FScattered clouds.18 mph66%29.92 "HgN/A
8:00 AM82 °FScattered clouds.18 mph70%29.92 "HgN/A
7:00 AM81 °FScattered clouds.16 mph74%29.89 "HgN/A
6:00 AM81 °FPassing clouds.18 mph74%29.86 "HgN/A
5:00 AM79 °FPartly cloudy.14 mph84%29.86 "HgN/A
4:00 AM79 °FPassing clouds.14 mph84%29.83 "HgN/A
3:00 AM75 °FSprinkles. Passing clouds.9 mph94%29.83 "HgN/A
2:00 AM77 °FPassing clouds.12 mph94%29.86 "HgN/A
1:00 AM77 °FRain showers. Passing clouds.14 mph94%29.86 "HgN/A
12:00 AM77 °FSprinkles. Passing clouds.17 mph94%29.89 "HgN/A
11:00 PM
Sep 17
75 °FSprinkles. Passing clouds.14 mph100%29.89 "HgN/A
10:00 PM79 °FSprinkles. Passing clouds.21 mph89%29.89 "HgN/A
9:00 PM81 °FPartly cloudy.17 mph79%29.89 "HgN/A
8:00 PM79 °FPartly cloudy.15 mph84%29.89 "HgN/A
7:00 PM79 °FSprinkles. Passing clouds.17 mph84%29.86 "HgN/A
6:00 PM79 °FSprinkles. Partly sunny.14 mph84%29.86 "HgN/A
5:00 PM79 °FPartly sunny.16 mph84%29.83 "HgN/A
4:00 PM77 °FSprinkles. Partly sunny.18 mph89%29.83 "Hg5 mi
3:00 PM77 °FSprinkles. Partly sunny.12 mph89%29.83 "Hg3 mi
2:00 PM77 °FSprinkles. Partly sunny.12 mph89%29.83 "Hg3 mi
1:00 PM79 °FSprinkles. Partly sunny.12 mph89%29.83 "HgN/A
12:00 PM86 °FPartly sunny.15 mph66%29.86 "HgN/A
11:00 AM84 °FBroken clouds.15 mph66%29.89 "HgN/A
10:00 AM84 °FPartly sunny.15 mph70%29.89 "HgN/A
Weather by CustomWeather, © 2014

See weather overviewHow to use our weather pages